カタログに戻る

STARLINK-3977

運用中通信VLEO
NORAD 52640·PAYLOAD·🇺🇸 United States

打ち上げ May 14, 2022 から Cape Canaveral Space Force Station

Loading…

次のパス (今後24時間)

TLE

最新Source: CelesTrak SupGP

元期: Sep 15, 2026, 01:16 UTC

1 52640C 22052AU  26258.05326389  .00053696  00000+0  15367-2 0  2587
2 52640  53.1565 117.6069 0001218  82.3248  19.5913 15.35363007    15

AllMySatでSTARLINK-3977をリアルタイム追跡

Download on the App Store